Regional Weather Roundup
Issued by NWS Sioux Falls, SD

Home | Current Version | Previous Version | Graphics & Text | Print | Product List | Glossary On
Versions: 1 2 3 4 5 6 7 8 9 10 11 12 13 14 15 16 17 18 19 20 21 22 23 24 25 26 27 28 29 30 31 32 33 34 35 36 37 38 39 40 41 42 43 44 45 46 47 48 49 50
000
ASUS43 KFSD 260102
RWRFSD

WEATHER ROUNDUP FOR SE SOUTH DAKOTA/SW MINNESOTA/NW IOWA
NATIONAL WEATHER SERVICE SIOUX FALLS SD
800 PM CDT MON MAY 25 2015

NOTE: "FAIR" INDICATES FEW OR NO CLOUDS BELOW 12,000 FEET WITH NO
SIGNIFICANT WEATHER AND OR OBSTRUCTIONS TO VISIBILITY.


SDZ038>040-050-052>070-260200-
SOUTHEAST SOUTH DAKOTA

CITY           SKY/WX    TMP DP  RH WIND       PRES   REMARKS
BROOKINGS      PTCLDY    61  54  77 N12       29.78R
CHAMBERLAIN    NOT AVBL
HURON          PTCLDY    64  50  60 NE20G29   29.77F
MADISON        FAIR      63  61  94 N9        29.77R
MITCHELL       PTCLDY    66  56  70 N15       29.77R
SIOUX FALLS    PTCLDY    67  59  75 N5        29.77R
WINNER         CLOUDY    61  57  87 NW6       29.81R
YANKTON        PTCLDY    66  59  77 N6        29.75R
$$

MNZ071-072-080-081-089-090-097-098-260200-
SOUTHWEST MINNESOTA

CITY           SKY/WX    TMP DP  RH WIND       PRES   REMARKS
FAIRMONT       PTCLDY    73  54  49 W8        29.75S
JACKSON        PTCLDY    70  61  73 W5        29.76F
LUVERNE        MOCLDY    68  59  73 N6        29.78R
MARSHALL       MOCLDY    64  54  68 NW14      29.76R
MONTEVIDEO     PTCLDY    64  57  77 N9        29.72F
REDWOOD FALLS  PTCLDY    66  57  72 NW8       29.72F
TRACY          MOCLDY    68  59  73 NW7       29.77R
WINDOM         MOCLDY    70  59  68 CALM      29.77R
WORTHINGTON    MOCLDY    66  57  72 N3        29.77R
$$

IAZ001>003-012>014-020>022-031-032-NEZ013-014-SDZ071-260200-
NORTHWEST IOWA

CITY           SKY/WX    TMP DP  RH WIND       PRES   REMARKS
DENISON        LGT RAIN  68  63  83 SW7G15    29.76R
ESTHERVILLE    PTCLDY    72  55  55 SW10      29.75R
SIOUX CITY     PTCLDY    77  56  48 SW8       29.73S
SPENCER        PTCLDY    72  57  59 SW9       29.76R
$$

ABBREVIATIONS USED IN REMARKS
   TC - TEMPERATURE IN CELSIUS
  WCI - WIND CHILL INDEX
   HX - HEAT INDEX
  VSB - VISIBILITY




USA.gov is the U.S. government's official web portal to all federal, state and local government web resources and services.